[[{"header":{"parameterUnit":"m.s-1","parameterCategory":1,"la1":30.2991,"la2":30.254,"lo1":-89.0895,"lo2":-89.0444,"dy":0.0017,"dx":0.0017,"nx":28,"ny":28,"refTime":"2025-12-06T03:00:00:Z","depth":0,"parameterNumber":2,"parameterNumberName":"U-component_of_WINDS"},"data":[0,0,0,0,0,0,0,0,0,0,0,0,0,0,0,0,0,0,0,0,0,0,0,0,0,0,0,0,0,0,0,0,0,0,0,0,0,0,0,0,0,0,0,0,0,0,0,0,0,0,0,0,0,0,0,0,0,0,0.8797,0.8797,0,0.8772,0.8771,0.8771,0.8753,0.8753,0.8753,0.8753,0.8725,0.8725,0.8724,0,0,0,0,0,0,0,0,0,0,0,0,0,0.8828,0.8828,0.8797,0.8797,0.8796,0.8772,0.8771,0.8771,0.8753,0.8753,0.8753,0.8753,0.8726,0.8725,0.8724,0,0,0,0,0,0,0,0,0,0,0,0,0,0.881,0.8828,0.8797,0.8784,0.8783,0.8772,0.8771,0.8771,0.8753,0.8753,0.8753,0.8753,0.8726,0.8725,0.8724,0.8723,0,0,0.8721,0.8721,0,0,0,0,0,0,0,0,0.8811,0.8809,0.8787,0.8785,0.8784,0.8765,0.8773,0.8755,0.8753,0.8764,0.8753,0.8752,0.8739,0.8737,0.8732,0.8722,0.872,0.8721,0.8721,0.872,0.872,0,0,0,0,0,0,0,0.8813,0.881,0.8787,0.8786,0.8785,0.878,0.8777,0.8769,0.8753,0.8763,0.8762,0.8759,0.8738,0.8733,0.8732,0.872,0.8721,0.872,0.872,0.872,0.8707,0.8708,0,0,0,0,0,0,0.8816,0.8811,0.8788,0.8786,0.8797,0.8779,0.8776,0.8771,0.8753,0.875,0.876,0.8759,0.8735,0.8733,0.8731,0.8728,0.872,0.8719,0.8719,0.8707,0.8708,0.8708,0,0,0,0,0,0,0.8817,0.8814,0.8789,0.8798,0.8795,0.8779,0.8774,0.8771,0.8767,0.875,0.8747,0.8758,0.8735,0.8732,0.8725,0.8727,0.8719,0.8718,0.8707,0.8707,0.8708,0.8723,0,0,0,0,0,0,0.8818,0.8814,0.8814,0.8798,0.8794,0.8784,0.8774,0.8771,0.8765,0.8764,0.8748,0.8745,0.8734,0.8727,0.8724,0.8726,0.8718,0.8707,0.8707,0.8708,0.8722,0.8724,0.8725,0,0,0,0,0,0.8819,0.8819,0.8814,0.8811,0.8793,0.8784,0.8782,0.877,0.8765,0.8765,0.8754,0.8746,0.8727,0.8726,0.8723,0.8724,0.8707,0.8707,0.8707,0.8722,0.8724,0.8725,0,0,0,0,0,0,0.8834,0.8817,0.8811,0.8806,0.8797,0.8781,0.878,0.8772,0.8763,0.8762,0.8747,0.8744,0.8739,0.8731,0.873,0.8723,0.8716,0.8716,0.8728,0.8729,0.8731,0.8733,0.8717,0,0,0,0,0,0.8837,0.8831,0.8816,0.8813,0.8809,0.8795,0.8791,0.8783,0.8772,0.8768,0.8757,0.8747,0.8739,0.8734,0.8726,0.8722,0.8718,0.8721,0.8723,0.8724,0.8724,0.8721,0.8723,0.8709,0.8709,0.8709,0,0,0.8843,0.8832,0.8829,0.8816,0.8808,0.8802,0.8792,0.8786,0.8781,0.8767,0.876,0.8752,0.8739,0.8734,0.8731,0.8727,0.8727,0.8725,0.8726,0.8725,0.8722,0.8723,0.8724,0.871,0.871,0.871,0,0,0.885,0.8842,0.8838,0.8831,0.8819,0.881,0.8809,0.8795,0.8789,0.8782,0.8771,0.8766,0.8752,0.8744,0.8738,0.8744,0.8735,0.8742,0.8749,0.8747,0.8748,0.8749,0.875,0.8751,0.8742,0.8742,0.8742,0,0.8858,0.8849,0.8837,0.8832,0.8827,0.8815,0.8811,0.8804,0.879,0.8786,0.8783,0.8766,0.8757,0.875,0.8751,0.8747,0.8745,0.8743,0.8749,0.8749,0.875,0.8751,0.8752,0.8743,0.8742,0.8742,0.8742,0,0.886,0.8854,0.8853,0.884,0.8834,0.883,0.8818,0.8814,0.8806,0.8798,0.8791,0.878,0.877,0.8768,0.876,0.8759,0.8757,0.8751,0.8744,0.8752,0.8753,0.8754,0.8744,0.8743,0.8743,0.8743,0,0,0.8874,0.8857,0.8856,0.8851,0.8837,0.8832,0.8828,0.8818,0.8815,0.8806,0.8801,0.8791,0.8786,0.8779,0.8771,0.8769,0.8774,0.8763,0.8762,0.8765,0.8773,0.8777,0.8778,0.8769,0.8769,0.8769,0.8774,0,0.8879,0.887,0.8861,0.8855,0.885,0.8839,0.8835,0.8826,0.8818,0.8812,0.8803,0.8796,0.879,0.8786,0.8784,0.8774,0.8775,0.8774,0.8764,0.8764,0.8767,0.8778,0.8783,0.8788,0.8774,0.8774,0.8774,0,0.8883,0.8875,0.887,0.8858,0.8855,0.8852,0.8842,0.8837,0.8827,0.8821,0.8815,0.8806,0.8801,0.8795,0.8788,0.8787,0.8782,0.8777,0.8777,0.8775,0.8769,0.8776,0.8789,0.8789,0.8775,0.8775,0.8775,0,0.8894,0.8882,0.8878,0.8873,0.8859,0.8857,0.8851,0.8841,0.8836,0.8828,0.8825,0.8816,0.8811,0.8805,0.8794,0.8791,0.8787,0.8781,0.8782,0.8783,0.8781,0.8781,0.8793,0.878,0.878,0.878,0.878,0,0.89,0.8897,0.8882,0.8879,0.8876,0.8865,0.8861,0.8854,0.8846,0.8841,0.8831,0.8827,0.8813,0.8807,0.8799,0.8794,0.8792,0.8787,0.8785,0.8787,0.8788,0.8784,0.8783,0.878,0.878,0.878,0.878,0,0.8911,0.8901,0.8895,0.8883,0.888,0.8878,0.8867,0.8863,0.8856,0.885,0.8848,0.8835,0.8828,0.8817,0.8806,0.8801,0.8797,0.8794,0.88,0.8799,0.8801,0.8801,0.8809,0.881,0.8797,0.8797,0.8798,0,0.8915,0.8912,0.89,0.8897,0.8891,0.8885,0.8881,0.887,0.8865,0.8854,0.8852,0.8845,0.8838,0.8827,0.8816,0.8808,0.8804,0.8808,0.8803,0.8806,0.8804,0.8804,0.8803,0.8809,0.8809,0.8809,0.8809,0,0.8923,0.8919,0.8912,0.8905,0.89,0.8893,0.8886,0.8883,0.8871,0.8867,0.8859,0.8854,0.8844,0.8836,0.8827,0.882,0.8813,0.8811,0.8811,0.8813,0.8817,0.8815,0.8803,0.8811,0.8811,0.881,0.881,0.881,0.893,0.8928,0.8919,0.8912,0.8906,0.89,0.8896,0.8889,0.8883,0.8874,0.8868,0.8861,0.8852,0.8839,0.8833,0.8827,0.8824,0.8824,0.8823,0.8823,0.8824,0.8819,0.8825,0.8825,0.8825,0.8825,0.8825,0,0.8938,0.8932,0.8926,0.8917,0.8912,0.8906,0.8898,0.8894,0.8888,0.8881,0.8875,0.8867,0.8859,0.8849,0.8841,0.8839,0.8835,0.8837,0.8837,0.8835,0.8828,0.8829,0.884,0.884,0.884,0.884,0.884,0.884,0.8941,0.8936,0.8931,0.8923,0.8917,0.8911,0.8907,0.8901,0.8895,0.8887,0.8881,0.8874,0.8866,0.8857,0.885,0.8848,0.8845,0.8848,0.8844,0.8837,0.8836,0.8834,0.8835,0.8847,0.8847,0.8852,0.8852,0.8852]},{"header":{"parameterUnit":"m.s-1","parameterCategory":1,"la1":30.2991,"la2":30.254,"lo1":-89.0895,"lo2":-89.0444,"dy":0.0017,"dx":0.0017,"nx":28,"ny":28,"refTime":"2025-12-06T03:00:00:Z","depth":0,"parameterNumber":3,"parameterNumberName":"V-component_of_WINDS"},"data":[0,0,0,0,0,0,0,0,0,0,0,0,0,0,0,0,0,0,0,0,0,0,0,0,0,0,0,0,0,0,0,0,0,0,0,0,0,0,0,0,0,0,0,0,0,0,0,0,0,0,0,0,0,0,0,0,0,0,-4.9407,-4.9408,0,-4.9538,-4.9539,-4.9541,-4.9557,-4.9556,-4.9554,-4.9553,-4.9679,-4.9683,-4.9688,0,0,0,0,0,0,0,0,0,0,0,0,0,-4.9162,-4.9167,-4.9406,-4.9408,-4.941,-4.9537,-4.9539,-4.9541,-4.9557,-4.9555,-4.9554,-4.9553,-4.9678,-4.9683,-4.9688,0,0,0,0,0,0,0,0,0,0,0,0,0,-4.9278,-4.9168,-4.9406,-4.9433,-4.9437,-4.9537,-4.9539,-4.9541,-4.9557,-4.9555,-4.9554,-4.9552,-4.9676,-4.9682,-4.9689,-4.9769,0,0,-4.971,-4.9713,0,0,0,0,0,0,0,0,-4.9272,-4.9287,-4.9428,-4.9432,-4.9436,-4.9529,-4.9499,-4.9617,-4.9558,-4.9511,-4.9553,-4.9551,-4.963,-4.9641,-4.9669,-4.9774,-4.978,-4.971,-4.9715,-4.9717,-4.9719,0,0,0,0,0,0,0,-4.9264,-4.9282,-4.9458,-4.943,-4.9435,-4.9436,-4.9451,-4.9522,-4.9579,-4.9515,-4.9517,-4.9533,-4.9632,-4.9662,-4.9672,-4.9782,-4.971,-4.9716,-4.972,-4.9723,-4.9958,-4.996,0,0,0,0,0,0,-4.9252,-4.9275,-4.9454,-4.9462,-4.9348,-4.9442,-4.9459,-4.9501,-4.9579,-4.9589,-4.9534,-4.9533,-4.9652,-4.9664,-4.9677,-4.9775,-4.9717,-4.9724,-4.9728,-4.9956,-4.9959,-4.9961,0,0,0,0,0,0,-4.9246,-4.9268,-4.9449,-4.9369,-4.9392,-4.9449,-4.9496,-4.9505,-4.9535,-4.9593,-4.9603,-4.9555,-4.9651,-4.9667,-4.9746,-4.9779,-4.9727,-4.9733,-4.9954,-4.9957,-4.996,-4.9972,0,0,0,0,0,0,-4.9239,-4.9266,-4.9298,-4.937,-4.9397,-4.9518,-4.9498,-4.9508,-4.9548,-4.9547,-4.9615,-4.9625,-4.9651,-4.9736,-4.9753,-4.9788,-4.9738,-4.9951,-4.9955,-4.9959,-4.9968,-4.9975,-4.998,0,0,0,0,0,-4.9231,-4.9294,-4.93,-4.9321,-4.9439,-4.952,-4.9535,-4.9566,-4.955,-4.9582,-4.962,-4.9622,-4.9773,-4.9744,-4.9763,-4.98,-4.9949,-4.9954,-4.9959,-4.9966,-4.9974,-4.998,0,0,0,0,0,0,-4.9222,-4.9304,-4.9311,-4.94,-4.9454,-4.9523,-4.9564,-4.9573,-4.963,-4.9627,-4.966,-4.9675,-4.9753,-4.9784,-4.9751,-4.9881,-4.9859,-4.9868,-4.9858,-4.9866,-4.9872,-4.9862,-4.9744,0,0,0,0,0,-4.9231,-4.9293,-4.936,-4.9432,-4.9459,-4.9507,-4.9544,-4.9563,-4.9619,-4.964,-4.9683,-4.9735,-4.9793,-4.9831,-4.9889,-4.9973,-4.9987,-5.0008,-5.0014,-5.0019,-5.0026,-5.0072,-5.0082,-4.9977,-4.9977,-4.9977,0,0,-4.9249,-4.9302,-4.9338,-4.9432,-4.9476,-4.9537,-4.9526,-4.9591,-4.9636,-4.9649,-4.9728,-4.9761,-4.982,-4.9902,-4.994,-4.9931,-5.0058,-5.0025,-5.0028,-5.0033,-5.0078,-5.0088,-5.0097,-4.9981,-4.998,-4.9979,0,0,-4.9314,-4.9361,-4.9426,-4.9471,-4.9538,-4.957,-4.9585,-4.9654,-4.9677,-4.9757,-4.9768,-4.9821,-4.9922,-4.9964,-4.9998,-5.0079,-5.0084,-5.0097,-5.0127,-5.0172,-5.0181,-5.0188,-5.0216,-5.0226,-5.0104,-5.0104,-5.0104,0,-4.9327,-4.9423,-4.9458,-4.9524,-4.9564,-4.9582,-4.9647,-4.9688,-4.9769,-4.9795,-4.9784,-4.9911,-4.9952,-5.0045,-5.0065,-5.0092,-5.0109,-5.0089,-5.0177,-5.0185,-5.0192,-5.022,-5.023,-5.0105,-5.0105,-5.0105,-5.0105,0,-4.9436,-4.9502,-4.9546,-4.9628,-4.9673,-4.9738,-4.978,-4.9821,-4.9837,-4.9869,-4.9949,-4.9999,-5.0067,-5.009,-5.0105,-5.0184,-5.0176,-5.0171,-5.0149,-5.0203,-5.0229,-5.024,-5.0107,-5.0106,-5.0106,-5.0106,0,0,-4.9498,-4.96,-4.9615,-4.9653,-4.9728,-4.9779,-4.9843,-4.9913,-4.9947,-5.0002,-5.0056,-5.0142,-5.0138,-5.0176,-5.0196,-5.0235,-5.0296,-5.0225,-5.0227,-5.0236,-5.0386,-5.039,-5.0401,-5.03,-5.0302,-5.0304,-5.0381,0,-4.9572,-4.9692,-4.9725,-4.9825,-4.9886,-4.9904,-4.996,-5.0011,-5.0043,-5.0097,-5.013,-5.019,-5.018,-5.0204,-5.0244,-5.028,-5.0326,-5.0275,-5.0348,-5.035,-5.0333,-5.0415,-5.0419,-5.049,-5.0391,-5.0393,-5.0394,0,-4.9673,-4.9734,-4.9841,-4.991,-4.9936,-4.9987,-5.0053,-5.0105,-5.0163,-5.0183,-5.0227,-5.0243,-5.0309,-5.0284,-5.0375,-5.0339,-5.0371,-5.0393,-5.0396,-5.0404,-5.0375,-5.0424,-5.0513,-5.0523,-5.0411,-5.041,-5.0408,0,-4.9708,-4.9816,-4.9894,-4.9925,-5.0007,-5.0042,-5.0077,-5.0134,-5.0173,-5.023,-5.0256,-5.0318,-5.0352,-5.0399,-5.0431,-5.041,-5.0518,-5.0496,-5.0535,-5.0534,-5.0556,-5.0554,-5.0651,-5.0578,-5.0577,-5.0577,-5.0577,0,-4.9786,-4.985,-4.9911,-4.9959,-5.0031,-5.0068,-5.0138,-5.0173,-5.0223,-5.0276,-5.0294,-5.0343,-5.0383,-5.0436,-5.0461,-5.0531,-5.0546,-5.0563,-5.0568,-5.0561,-5.0559,-5.0582,-5.0578,-5.058,-5.0579,-5.0579,-5.0578,0,-4.9836,-4.988,-4.9966,-5.0038,-5.0057,-5.0107,-5.0167,-5.0213,-5.0245,-5.0313,-5.033,-5.038,-5.0445,-5.0481,-5.0561,-5.0577,-5.0656,-5.0659,-5.0637,-5.064,-5.0676,-5.0672,-5.0791,-5.0808,-5.0723,-5.0724,-5.0724,0,-4.9883,-4.9934,-5.0012,-5.0051,-5.0087,-5.0149,-5.019,-5.0228,-5.0269,-5.0339,-5.0376,-5.0442,-5.0497,-5.0598,-5.064,-5.0701,-5.0705,-5.0743,-5.0714,-5.0706,-5.0705,-5.0702,-5.0707,-5.0747,-5.0748,-5.0749,-5.0749,0,-4.9962,-4.9981,-5.0042,-5.0111,-5.016,-5.0215,-5.0269,-5.0298,-5.0345,-5.039,-5.0458,-5.0501,-5.0584,-5.0648,-5.0713,-5.0746,-5.0754,-5.0758,-5.077,-5.0763,-5.0748,-5.0756,-5.065,-5.0755,-5.0754,-5.0754,-5.0754,-5.0753,-5.0012,-5.0058,-5.0121,-5.0187,-5.0233,-5.0283,-5.033,-5.037,-5.0428,-5.0501,-5.0518,-5.0589,-5.0644,-5.0733,-5.0767,-5.0821,-5.0814,-5.0832,-5.0836,-5.084,-5.0841,-5.074,-5.0833,-5.0833,-5.0833,-5.0833,-5.0833,0,-5.0091,-5.0133,-5.0194,-5.0271,-5.0323,-5.0331,-5.0391,-5.0433,-5.0496,-5.0548,-5.0603,-5.068,-5.0743,-5.079,-5.0854,-5.0888,-5.0893,-5.0903,-5.09,-5.0908,-5.0844,-5.0827,-5.0897,-5.0897,-5.0897,-5.0897,-5.0897,-5.0897,-5.0139,-5.0217,-5.0244,-5.0344,-5.0384,-5.0457,-5.049,-5.0536,-5.0578,-5.0665,-5.0718,-5.075,-5.08,-5.0867,-5.0924,-5.0936,-5.0958,-5.0968,-5.098,-5.0919,-5.0912,-5.0905,-5.089,-5.0972,-5.0972,-5.1039,-5.104,-5.104]}]]